CW3202 Weather Reports


Display with metric or nautical units.
time (UTC)temp
F
wind
direction
speed
MPH
gust
MPH
rain 1hr
in
rain 24hr
in
rain mn
in
humidity
%
barometer
mb
20260508101204 43 360 0.0 2.0 0.00 0.00 0.00 97 1017.9
20260508100705 43 360 0.0 2.0 0.00 0.00 0.00 97 1017.8
20260508100204 43 360 0.0 2.0 0.00 0.00 0.00 97 1017.7
20260508095504 43 184 2.0 2.0 0.00 0.00 0.00 97 1017.6
20260508095004 43 184 0.0 1.0 0.00 0.00 0.00 97 1017.6
20260508094504 43 184 0.0 1.0 0.00 0.00 0.00 97 1017.6
20260508094004 43 184 0.0 1.0 0.00 0.00 0.00 97 1017.6
20260508093304 43 184 1.0 1.0 0.00 0.00 0.00 96 1017.5
20260508092604 43 360 1.0 1.0 0.00 0.00 0.00 96 1017.5
20260508092104 43 360 1.0 1.0 0.00 0.00 0.00 96 1017.4
20260508091404 43 360 0.0 0.0 0.00 0.00 0.00 96 1017.5
20260508090704 43 360 0.0 0.0 0.00 0.00 0.00 96 1017.4
20260508085804 43 360 0.0 0.0 0.00 0.00 0.00 96 1017.2
20260508085307 43 360 0.0 0.0 0.00 0.00 0.00 96 1017.2
20260508084804 44 360 0.0 0.0 0.00 0.00 0.00 96 1017.2
20260508084304 44 360 0.0 0.0 0.00 0.00 0.00 96 1017.2
20260508083804 44 360 0.0 0.0 0.00 0.00 0.00 96 1017.2
20260508083104 44 360 0.0 0.0 0.00 0.00 0.00 96 1017.2
20260508082604 44 360 0.0 0.0 0.00 0.00 0.00 95 1017.2
20260508081904 44 360 0.0 0.0 0.00 0.00 0.00 95 1017.3
20260508081404 44 360 0.0 0.0 0.00 0.00 0.00 95 1017.3
20260508080804 44 360 0.0 0.0 0.00 0.00 0.00 95 1017.2
20260508080204 44 360 0.0 0.0 0.00 0.00 0.00 95 1017.2
20260508075308 45 360 0.0 0.0 0.00 0.00 0.00 95 1017.0
20260508074705 45 360 0.0 0.0 0.00 0.00 0.00 95 1017.0
20260508074204 45 360 0.0 0.0 0.00 0.00 0.00 95 1017.0
20260508073605 45 360 0.0 0.0 0.00 0.00 0.00 95 1017.0
20260508073104 45 360 0.0 0.0 0.00 0.00 0.00 95 1016.9
20260508072604 45 360 0.0 0.0 0.00 0.00 0.00 94 1016.9
20260508072104 45 360 0.0 0.0 0.00 0.00 0.00 94 1017.0
20260508071604 45 360 0.0 0.0 0.00 0.00 0.00 94 1017.0
20260508070904 45 360 0.0 0.0 0.00 0.00 0.00 94 1016.9
20260508070404 46 360 0.0 0.0 0.00 0.00 0.00 93 1016.9
20260508065904 46 360 0.0 0.0 0.00 0.00 0.00 93 1016.9
20260508065404 46 360 0.0 1.0 0.00 0.00 0.00 93 1016.9
20260508064904 46 360 0.0 1.0 0.00 0.00 0.00 93 1016.9
20260508064404 46 360 0.0 1.0 0.00 0.00 0.00 93 1016.9
20260508063904 46 360 0.0 0.0 0.00 0.00 0.00 93 1017.0
20260508063404 46 360 0.0 0.0 0.00 0.00 0.00 93 1017.0
20260508062904 47 360 0.0 0.0 0.00 0.00 0.00 93 1017.0
20260508062404 47 360 0.0 0.0 0.00 0.00 0.00 93 1017.0
20260508061904 47 360 0.0 0.0 0.00 0.00 0.00 93 1017.0
20260508061204 47 360 0.0 0.0 0.00 0.00 0.00 92 1016.9
20260508060704 47 360 0.0 0.0 0.00 0.00 0.00 92 1017.0
20260508060204 47 360 0.0 0.0 0.00 0.00 0.00 91 1017.0
20260508055704 47 360 0.0 0.0 0.00 0.00 0.00 92 1017.0
20260508055204 47 360 0.0 0.0 0.00 0.00 0.00 91 1017.0
20260508054504 48 360 0.0 0.0 0.00 0.00 0.00 91 1017.1
20260508054004 48 360 0.0 0.0 0.00 0.00 0.00 90 1017.1
20260508053504 48 360 0.0 0.0 0.00 0.00 0.00 90 1017.0
20260508053004 48 360 0.0 0.0 0.00 0.00 0.00 89 1017.1
20260508052504 49 360 0.0 1.0 0.00 0.00 0.00 89 1017.0
20260508052004 49 360 0.0 1.0 0.00 0.00 0.00 89 1017.1
20260508051304 49 360 0.0 1.0 0.00 0.00 0.00 88 1017.0
20260508050804 50 360 0.0 0.0 0.00 0.00 0.00 87 1017.0
20260508050304 50 184 0.0 0.0 0.00 0.00 0.00 87 1017.0
20260508045804 50 184 0.0 0.0 0.00 0.00 0.00 86 1016.9
20260508045307 50 184 0.0 1.0 0.00 0.00 0.00 85 1016.9
20260508044504 51 184 0.0 1.0 0.00 0.00 0.00 84 1016.9
20260508044004 51 184 0.0 1.0 0.00 0.00 0.00 84 1016.9
20260508043504 51 184 0.0 1.0 0.00 0.00 0.00 84 1016.9
20260508043004 52 184 0.0 1.0 0.00 0.00 0.00 84 1017.0
20260508042504 52 184 0.0 1.0 0.00 0.00 0.00 83 1016.9
20260508042004 52 184 0.0 1.0 0.00 0.00 0.00 84 1016.9
20260508041504 52 184 0.0 2.0 0.00 0.00 0.00 84 1016.8
20260508041004 52 184 0.0 2.0 0.00 0.00 0.00 83 1016.8
20260508040504 52 184 2.0 2.0 0.00 0.00 0.00 80 1016.9
20260508035804 54 184 1.0 2.0 0.00 0.00 0.00 78 1016.7
20260508035306 54 178 1.0 1.0 0.00 0.00 0.00 77 1016.6
20260508034704 55 360 0.0 1.0 0.00 0.00 0.00 75 1016.6
20260508034204 55 360 0.0 1.0 0.00 0.00 0.00 75 1016.5
20260508033704 56 360 1.0 2.0 0.00 0.00 0.00 73 1016.5
20260508033204 57 360 0.0 2.0 0.00 0.00 0.00 72 1016.4
20260508032704 57 360 2.0 4.0 0.00 0.00 0.00 71 1016.3
20260508032204 58 360 2.0 4.0 0.00 0.00 0.00 69 1016.3
20260508031704 58 360 1.0 3.0 0.00 0.00 0.00 69 1016.3
20260508031004 59 157 1.0 4.0 0.00 0.00 0.00 67 1016.1
20260508030404 59 198 2.0 4.0 0.00 0.00 0.00 66 1016.1
20260508025904 59 231 3.0 4.0 0.00 0.00 0.00 65 1016.2
20260508025404 60 193 3.0 4.0 0.00 0.00 0.00 66 1016.2
20260508024904 60 195 1.0 6.0 0.00 0.00 0.00 64 1016.2
20260508024404 61 213 4.0 6.0 0.00 0.00 0.00 63 1016.3
20260508023904 62 184 4.0 5.0 0.00 0.00 0.00 63 1016.2
20260508023404 62 226 3.0 7.0 0.00 0.00 0.00 59 1016.1
20260508022704 63 207 4.0 7.0 0.00 0.00 0.00 58 1016.0
20260508022204 63 202 6.0 6.0 0.00 0.00 0.00 61 1016.1
20260508021705 63 192 3.0 4.0 0.00 0.00 0.00 60 1016.1
20260508021204 63 207 2.0 5.0 0.00 0.00 0.00 63 1016.1
20260508020704 62 360 3.0 8.0 0.00 0.00 0.00 64 1016.1
20260508020204 62 215 2.0 8.0 0.00 0.00 0.00 61 1016.2
20260508015705 62 221 4.0 6.0 0.00 0.00 0.00 62 1016.2
20260508015204 62 236 5.0 6.0 0.00 0.00 0.00 63 1016.2
20260508014704 62 233 3.0 6.0 0.00 0.00 0.00 61 1016.2
20260508014204 63 360 5.0 8.0 0.00 0.00 0.00 61 1016.2
20260508013704 63 221 4.0 8.0 0.00 0.00 0.00 58 1016.3
20260508013204 64 204 8.0 8.0 0.00 0.00 0.00 59 1016.3
20260508012704 64 224 6.0 6.0 0.00 0.00 0.00 60 1016.3
20260508012204 65 228 2.0 9.0 0.00 0.00 0.00 58 1016.4
20260508011504 65 213 4.0 9.0 0.00 0.00 0.00 58 1016.4
20260508011005 65 206 5.0 8.0 0.00 0.00 0.00 62 1016.3
20260508010504 65 208 5.0 10.0 0.00 0.00 0.00 59 1016.4
20260508010004 65 190 7.0 10.0 0.00 0.00 0.00 61 1016.4
20260508005404 66 212 4.0 6.0 0.00 0.00 0.00 58 1016.4
20260508004704 67 192 2.0 4.0 0.00 0.00 0.00 55 1016.5
20260508004204 68 231 1.0 4.0 0.00 0.00 0.00 56 1016.4
20260508003704 67 191 2.0 5.0 0.00 0.00 0.00 55 1016.4
20260508003204 67 219 4.0 5.0 0.00 0.00 0.00 58 1016.4
20260508002704 67 265 3.0 6.0 0.00 0.00 0.00 53 1016.3
20260508002204 67 209 4.0 6.0 0.00 0.00 0.00 56 1016.4
20260508001704 66 279 2.0 5.0 0.00 0.00 0.00 55 1016.4
20260508001204 66 241 4.0 6.0 0.00 0.00 0.00 55 1016.4
20260508000704 66 217 5.0 7.0 0.00 0.00 0.00 55 1016.4
20260508000105 67 245 7.0 7.0 0.00 0.00 0.00 55 1016.5
20260507235604 67 209 7.0 7.0 0.00 0.00 0.00 58 1016.4
20260507235104 67 216 6.0 7.0 0.00 0.00 0.00 58 1016.4
20260507234604 67 261 4.0 7.0 0.00 0.00 0.00 57 1016.4
20260507233703 68 268 7.0 7.0 0.00 0.00 0.00 54 1016.5
20260507233204 68 337 3.0 4.0 0.00 0.00 0.00 53 1016.5
20260507232704 69 221 2.0 3.0 0.00 0.00 0.00 51 1016.6
20260507232204 69 183 1.0 5.0 0.00 0.00 0.00 45 1016.6
20260507231704 69 217 2.0 5.0 0.00 0.00 0.00 46 1016.6
20260507231204 69 73 4.0 4.0 0.00 0.00 0.00 44 1016.7
20260507230704 68 293 2.0 4.0 0.00 0.00 0.00 52 1016.8
20260507230204 68 283 4.0 4.0 0.00 0.00 0.00 46 1016.9
20260507225704 68 248 1.0 4.0 0.00 0.00 0.00 44 1016.9
20260507225204 69 270 4.0 5.0 0.00 0.00 0.00 50 1017.1
20260507224704 69 173 2.0 5.0 0.00 0.00 0.00 46 1017.2
20260507224204 69 154 1.0 3.0 0.00 0.00 0.00 47 1017.2
20260507223404 68 165 1.0 5.0 0.00 0.00 0.00 47 1017.4
20260507222904 68 163 2.0 5.0 0.00 0.00 0.00 51 1017.4
20260507222404 67 189 3.0 7.0 0.00 0.00 0.00 46 1017.4
20260507221904 67 206 2.0 7.0 0.00 0.00 0.00 50 1017.5
20260507221204 66 276 2.0 3.0 0.00 0.00 0.00 52 1017.7
20260507220704 66 181 1.0 3.0 0.00 0.00 0.00 47 1017.8
20260507220204 66 59 0.0 4.0 0.00 0.00 0.00 46 1018.0
20260507215704 66 38 2.0 4.0 0.00 0.00 0.00 43 1018.0
20260507215004 66 260 0.0 4.0 0.00 0.00 0.00 42 1018.0
20260507214304 66 197 3.0 3.0 0.00 0.00 0.00 52 1018.3
20260507213804 65 239 0.0 2.0 0.00 0.00 0.00 50 1018.3
20260507213304 65 238 1.0 3.0 0.00 0.00 0.00 46 1018.2
20260507212804 65 112 2.0 4.0 0.00 0.00 0.00 51 1018.2
20260507212307 64 213 1.0 4.0 0.00 0.00 0.00 53 1018.2
20260507211804 65 200 4.0 4.0 0.00 0.00 0.00 52 1018.3
20260507211304 65 184 2.0 4.0 0.00 0.00 0.00 60 1018.3
20260507210804 64 196 3.0 4.0 0.00 0.00 0.00 57 1018.3
20260507210304 64 197 1.0 4.0 0.00 0.00 0.00 56 1018.3
20260507205804 63 229 2.0 7.0 0.00 0.00 0.00 59 1018.4
20260507205306 63 229 1.0 7.0 0.00 0.00 0.00 58 1018.5
20260507204804 62 171 1.0 4.0 0.00 0.00 0.00 60 1018.5
20260507204304 63 211 4.0 4.0 0.00 0.00 0.00 62 1018.7
20260507203804 63 209 1.0 3.0 0.00 0.00 0.00 54 1018.7
20260507203304 63 182 1.0 4.0 0.00 0.00 0.00 54 1018.7
20260507202804 62 159 1.0 4.0 0.00 0.00 0.00 57 1018.9
20260507202104 61 187 4.0 5.0 0.00 0.00 0.00 61 1019.0
20260507201604 61 198 3.0 5.0 0.00 0.00 0.00 59 1019.1
20260507201104 60 256 5.0 5.0 0.00 0.00 0.00 60 1019.2
20260507200604 61 280 3.0 5.0 0.00 0.00 0.00 57 1019.2
20260507200104 60 284 3.0 4.0 0.00 0.00 0.00 61 1019.2
20260507195604 60 204 2.0 3.0 0.00 0.00 0.00 59 1019.3
20260507195104 60 203 2.0 5.0 0.00 0.00 0.00 62 1019.3
20260507194604 60 180 3.0 5.0 0.00 0.00 0.00 60 1019.4
20260507194105 60 219 2.0 4.0 0.00 0.00 0.00 61 1019.4
20260507193604 60 238 0.0 6.0 0.00 0.00 0.00 57 1019.5
20260507193004 60 218 5.0 6.0 0.00 0.00 0.00 63 1019.4
20260507192504 60 331 2.0 3.0 0.00 0.00 0.00 65 1019.5
20260507192004 59 38 3.0 3.0 0.00 0.00 0.00 63 1019.7
20260507191504 59 281 2.0 6.0 0.00 0.00 0.00 61 1019.7
20260507190904 59 75 2.0 6.0 0.00 0.00 0.00 61 1019.8
20260507190404 60 53 1.0 5.0 0.00 0.00 0.00 62 1019.8
20260507185904 59 158 2.0 3.0 0.00 0.00 0.00 67 1019.8
20260507185404 58 216 1.0 4.0 0.00 0.00 0.00 70 1019.9
20260507184904 57 226 2.0 4.0 0.00 0.00 0.00 69 1019.9
20260507184404 57 227 1.0 3.0 0.00 0.00 0.00 66 1020.0
20260507183904 57 224 2.0 4.0 0.00 0.00 0.00 68 1020.1
20260507183204 57 200 2.0 4.0 0.00 0.00 0.00 66 1020.1
20260507182704 57 163 2.0 3.0 0.00 0.00 0.00 72 1020.2
20260507182204 57 216 2.0 5.0 0.00 0.00 0.00 71 1020.1
20260507181704 57 186 3.0 5.0 0.00 0.00 0.00 72 1020.2
20260507181204 56 135 0.0 3.0 0.00 0.00 0.00 69 1020.1
20260507180504 55 271 2.0 4.0 0.00 0.00 0.00 69 1020.1
20260507175804 55 227 2.0 4.0 0.00 0.00 0.00 72 1020.3
20260507175306 55 182 1.0 4.0 0.00 0.00 0.00 72 1020.3
20260507174804 55 198 3.0 4.0 0.00 0.00 0.00 76 1020.3
20260507174304 55 200 3.0 3.0 0.00 0.00 0.00 75 1020.4
20260507173804 56 180 3.0 3.0 0.00 0.00 0.00 73 1020.6
20260507173104 55 101 0.0 2.0 0.00 0.00 0.00 73 1020.6
20260507172604 54 180 1.0 2.0 0.00 0.00 0.00 76 1020.5
20260507172104 54 360 0.0 2.0 0.00 0.00 0.00 77 1020.6
20260507171604 53 51 0.0 2.0 0.00 0.00 0.00 75 1020.6
20260507171005 54 178 2.0 3.0 0.00 0.00 0.00 75 1020.6
20260507170504 53 178 0.0 4.0 0.00 0.00 0.00 74 1020.5
20260507165804 54 175 3.0 4.0 0.00 0.00 0.00 77 1020.6
20260507165306 53 146 0.0 6.0 0.00 0.00 0.00 77 1020.5
20260507164804 53 257 0.0 6.0 0.00 0.00 0.00 75 1020.6
20260507164304 53 252 0.0 4.0 0.00 0.00 0.00 75 1020.7
20260507163804 52 286 0.0 4.0 0.00 0.00 0.00 77 1020.7
20260507163104 52 360 2.0 4.0 0.00 0.00 0.00 76 1020.7
20260507162604 52 360 1.0 3.0 0.00 0.00 0.00 78 1020.7
20260507162104 51 360 1.0 3.0 0.00 0.00 0.00 78 1020.7
20260507161404 51 360 2.0 3.0 0.00 0.00 0.00 78 1020.8
20260507160904 51 302 3.0 4.0 0.00 0.00 0.00 79 1020.8
20260507160404 50 360 3.0 4.0 0.00 0.00 0.00 79 1020.8
20260507155904 50 360 2.0 3.0 0.00 0.00 0.00 81 1020.8
20260507155404 50 360 1.0 5.0 0.00 0.00 0.00 80 1020.9
20260507154904 50 360 2.0 5.0 0.00 0.00 0.00 80 1020.9
20260507154404 50 360 2.0 6.0 0.00 0.00 0.00 80 1020.8
20260507153904 50 360 1.0 6.0 0.00 0.00 0.00 80 1020.9
20260507153404 50 360 3.0 3.0 0.00 0.00 0.00 82 1020.9
20260507152904 50 360 1.0 5.0 0.00 0.00 0.00 82 1020.8
20260507152404 50 360 3.0 5.0 0.00 0.00 0.00 82 1020.9
20260507151704 49 360 1.0 3.0 0.00 0.00 0.00 81 1020.9
20260507151004 49 360 1.0 4.0 0.00 0.00 0.00 83 1020.9
20260507150504 49 360 1.0 4.0 0.00 0.00 0.00 82 1020.8
20260507150004 49 360 2.0 4.0 0.00 0.00 0.00 82 1020.8
20260507145504 49 360 3.0 4.0 0.00 0.00 0.00 81 1020.8
20260507145004 49 360 2.0 4.0 0.00 0.00 0.00 81 1020.7
20260507143904 49 360 1.0 5.0 0.00 0.00 0.00 82 1020.8
20260507143404 49 360 3.0 4.0 0.00 0.00 0.00 83 1020.8
20260507142704 49 360 3.0 5.0 0.00 0.00 0.00 84 1020.7
20260507142004 49 360 3.0 5.0 0.00 0.00 0.00 84 1020.8
20260507141504 48 360 3.0 3.0 0.00 0.00 0.00 85 1020.7
20260507141004 48 360 1.0 3.0 0.00 0.00 0.00 85 1020.6
20260507140504 48 360 2.0 2.0 0.00 0.00 0.00 86 1020.7
20260507140004 48 229 2.0 4.0 0.00 0.00 0.00 85 1020.6
20260507135504 48 234 0.0 4.0 0.00 0.00 0.00 86 1020.5
20260507135004 48 360 4.0 4.0 0.00 0.00 0.00 87 1020.5
20260507134304 48 360 0.0 2.0 0.00 0.00 0.00 87 1020.6
20260507133804 48 221 0.0 2.0 0.00 0.00 0.00 86 1020.6
20260507133304 48 221 0.0 2.0 0.00 0.00 0.00 86 1020.5
20260507132804 48 360 0.0 2.0 0.00 0.00 0.00 87 1020.5
20260507132204 48 360 1.0 2.0 0.00 0.00 0.00 86 1020.6
20260507131704 48 360 2.0 3.0 0.00 0.00 0.00 86 1020.6
20260507131204 48 360 2.0 4.0 0.00 0.00 0.00 85 1020.5
20260507130504 48 360 2.0 4.0 0.00 0.00 0.00 86 1020.4
20260507130004 48 211 3.0 3.0 0.00 0.00 0.00 91 1020.4
20260507125504 48 205 0.0 0.0 0.00 0.00 0.00 92 1020.4
20260507125004 48 205 0.0 1.0 0.00 0.00 0.00 91 1020.3